Roanoke, VA

10:06 AM EDT on May 23, 2017 (GMT -0400)
Roanoke Regional-Woodrum

Weather History for KROA - December, 2013

Change the Weather History Date:

Monday, December 2, 2013

  Actual Average Record
Temperature  
Mean Temperature 42 °F 42 °F  
Max Temperature 52 °F 52 °F 70 °F (1970)
Min Temperature 32 °F 33 °F 19 °F (1947)
Degree Days  
Heating Degree Days 23 23  
Month to date heating degree days 49 45  
Since 1 July heating degree days 921 849  
Cooling Degree Days 0 0  
Month to date cooling degree days 0 0  
Year to date cooling degree days 1227 1208  
Moisture  
Dew Point 31 °F    
Average Humidity 65    
Maximum Humidity 82    
Minimum Humidity 48    
Precipitation  
Precipitation 0.00 in 0.11 in 1.73 in (1986)
Month to date precipitation 0.00 0.21  
Year to date precipitation 48.72 38.52  
Snow  
Snow 0.00 in - - ()
Month to date snowfall 0.0  
Since 1 July snowfall T  
Snow Depth 0.00 in    
Sea Level Pressure  
Sea Level Pressure 29.93 in    
Wind  
Wind Speed 1 mph (ENE)    
Max Wind Speed 7 mph    
Max Gust Speed 9 mph    
Visibility 10 miles    
Events      
T = Trace of Precipitation, MM = Missing Value Source: NWS Daily Summary

Daily Weather History Graph

Daily Weather History Graph

Search for Another Location

Airport or City:

Trip Planner

Search our weather history database for the weather conditions in past years. The results will help you decide how hot, cold, wet, or windy it might be!

Date:

Astronomy

Dec. 02, 2013 Rise Set
Actual Time 7:16 AM EST 5:02 PM EST
Civil Twilight 6:47 AM EST 5:31 PM EST
Nautical Twilight 6:15 AM EST 6:03 PM EST
Astronomical Twilight 5:43 AM EST 6:34 PM EST
Moon 6:40 AM EST (12/2) 5:03 PM EST (12/2)
Length of Visible Light 10h 43m
Length of Day
9h 45m
Waning Crescent, 0% of the Moon is Illuminated
Dec 2
Waning Crescent
Dec 2
New
Dec 9
First Quarter
Dec 17
Full
Dec 25
Last Quarter

Hourly Weather History & Observations

Time (EST) Temp. Windchill Dew Point Humidity Pressure Visibility Wind Dir Wind Speed Gust Speed Precip Events Conditions
12:54 AM 37.0 °F - 28.9 °F 73% 30.02 in 10.0 mi Calm Calm - N/A   Overcast
1:54 AM 37.0 °F - 28.9 °F 73% 30.01 in 10.0 mi Calm Calm - N/A   Overcast
2:54 AM 37.0 °F - 28.0 °F 70% 29.99 in 10.0 mi Calm Calm - N/A   Overcast
3:54 AM 36.0 °F - 28.0 °F 73% 29.97 in 10.0 mi Calm Calm - N/A   Scattered Clouds
4:54 AM 36.0 °F - 28.0 °F 73% 29.97 in 10.0 mi Calm Calm - N/A   Partly Cloudy
5:54 AM 33.1 °F - 28.0 °F 82% 29.97 in 10.0 mi Calm Calm - N/A   Mostly Cloudy
6:54 AM 34.0 °F - 28.0 °F 79% 29.97 in 10.0 mi Calm Calm - N/A   Mostly Cloudy
7:54 AM 34.0 °F - 28.9 °F 82% 29.97 in 10.0 mi Calm Calm - N/A   Mostly Cloudy
8:54 AM 37.0 °F - 30.9 °F 79% 29.98 in 10.0 mi Calm Calm - N/A   Overcast
9:54 AM 41.0 °F 38.0 °F 30.9 °F 67% 29.97 in 10.0 mi NNE 4.6 mph - N/A   Overcast
10:54 AM 44.1 °F - 30.9 °F 60% 29.95 in 10.0 mi Calm Calm - N/A   Overcast
11:54 AM 48.0 °F - 30.9 °F 52% 29.92 in 10.0 mi West 3.5 mph - N/A   Overcast
12:54 PM 48.9 °F - 30.9 °F 50% 29.90 in 10.0 mi Calm Calm - N/A   Overcast
1:54 PM 51.1 °F - 32.0 °F 48% 29.88 in 10.0 mi Calm Calm - N/A   Overcast
2:54 PM 52.0 °F - 33.1 °F 49% 29.86 in 10.0 mi Calm Calm - N/A   Overcast
3:54 PM 52.0 °F - 34.0 °F 50% 29.87 in 10.0 mi East 3.5 mph - N/A   Overcast
4:54 PM 51.1 °F - 34.0 °F 52% 29.87 in 10.0 mi Calm Calm - N/A   Overcast
5:54 PM 48.9 °F - 34.0 °F 56% 29.88 in 10.0 mi SE 4.6 mph - N/A   Overcast
6:54 PM 48.9 °F - 34.0 °F 56% 29.89 in 10.0 mi Calm Calm - N/A   Overcast
7:54 PM 48.0 °F - 34.0 °F 58% 29.89 in 10.0 mi Calm Calm - N/A   Overcast
8:54 PM 46.9 °F - 34.0 °F 61% 29.89 in 10.0 mi Calm Calm - N/A   Overcast
9:54 PM 46.9 °F - 34.0 °F 61% 29.90 in 10.0 mi Calm Calm - N/A   Overcast
10:54 PM 44.1 °F - 35.1 °F 71% 29.89 in 10.0 mi Calm Calm - N/A   Overcast
11:54 PM 42.1 °F - 35.1 °F 76% 29.89 in 10.0 mi Calm Calm - N/A   Overcast